Location: Le Hiès Ruisseau
(43.3000°N, 0.4500°W)
Time: 03:26:05
(UTC+00:00)

Cosmos 44 - Pass Details

Date: 28 January 2023
Orbit: 582 x 777 km, 65.1° (Epoch: 27 March)

Event Time Altitude Azimuth Distance (km) Brightness Sun altitude
Rises 18:21:46 0° 226° (SW) 2,793 7.5 -13.6°
Reaches altitude 10° 18:24:02 10° 232° (SW) 1,905 6.6 -14.0°
Maximum altitude 18:28:11 50° 308° (NW) 763 3.8 -14.7°
Enters shadow 18:32:26 10° 25° (NNE) 1,950 5.3 -15.5°
